^^
Saratoga-Weather Station Historical Data
Daily Summary for August 9, 2020 Units:  Metric    English   Both
Daily Weekly Monthly Yearly Custom
  High: Low: Average:
Temperature: 15.9 °C 13.4 °C 14.5 °C
Dew Point: 12.2 °C 11.6 °C 11.9 °C
Humidity: 90% 76% 85%
Wind Speed: 0km/h 0km/h 0km/h
Wind Gust: 0km/h - -
Wind- -
Pressure: 1024.4 hPa 1023.0 hPa -
Precipitation: 0.0 mm    
Historical Graphs
 
 
Tabular Data for August 9, 2020
Time Temperature Dew Point Pressure Wind Wind Speed Wind Gust Humidity Rainfall Rate (Hourly) solar
00:03 15.9 °C 11.7 °C 1024.4 hPa Calm     76% 0.0 mm 0 W/m2
00:08 15.9 °C 11.9 °C 1024.4 hPa Calm     77% 0.0 mm 0 W/m2
00:13 15.8 °C 12 °C 1024.4 hPa Calm     78% 0.0 mm 0 W/m2
00:18 15.8 °C 11.8 °C 1024.0 hPa Calm     77% 0.0 mm 0 W/m2
00:23 15.8 °C 12 °C 1024.4 hPa Calm     78% 0.0 mm 0 W/m2
00:28 15.7 °C 11.9 °C 1024.0 hPa Calm     78% 0.0 mm 0 W/m2
00:33 15.7 °C 12.1 °C 1024.0 hPa Calm     79% 0.0 mm 0 W/m2
00:38 15.6 °C 12 °C 1024.0 hPa Calm     79% 0.0 mm 0 W/m2
00:43 15.6 °C 12 °C 1024.0 hPa Calm     79% 0.0 mm 0 W/m2
00:48 15.5 °C 11.9 °C 1024.0 hPa Calm     79% 0.0 mm 0 W/m2
00:53 15.4 °C 12 °C 1024.0 hPa Calm     80% 0.0 mm 0 W/m2
00:58 15.3 °C 11.9 °C 1024.0 hPa Calm     80% 0.0 mm 0 W/m2
01:03 15.2 °C 12 °C 1024.0 hPa Calm     81% 0.0 mm 0 W/m2
01:08 15.1 °C 12 °C 1024.0 hPa Calm     82% 0.0 mm 0 W/m2
01:13 15 °C 12.1 °C 1024.0 hPa Calm     83% 0.0 mm 0 W/m2
01:18 14.9 °C 12 °C 1024.0 hPa Calm     83% 0.0 mm 0 W/m2
01:23 14.8 °C 12.1 °C 1024.0 hPa Calm     84% 0.0 mm 0 W/m2
01:28 14.8 °C 12.1 °C 1024.0 hPa Calm     84% 0.0 mm 0 W/m2
01:33 14.7 °C 12.2 °C 1024.0 hPa Calm     85% 0.0 mm 0 W/m2
01:38 14.6 °C 12.1 °C 1024.0 hPa Calm     85% 0.0 mm 0 W/m2
01:43 14.6 °C 12.1 °C 1024.0 hPa Calm     85% 0.0 mm 0 W/m2
01:48 14.6 °C 12.1 °C 1024.0 hPa Calm     85% 0.0 mm 0 W/m2
01:53 14.5 °C 12 °C 1024.0 hPa Calm     85% 0.0 mm 0 W/m2
01:58 14.4 °C 12.1 °C 1024.0 hPa Calm     86% 0.0 mm 0 W/m2
02:03 14.4 °C 12.1 °C 1024.0 hPa Calm     86% 0.0 mm 0 W/m2
02:08 14.3 °C 12 °C 1024.0 hPa Calm     86% 0.0 mm 0 W/m2
02:13 14.2 °C 11.9 °C 1024.0 hPa Calm     86% 0.0 mm 0 W/m2
02:18 14.2 °C 12.1 °C 1023.7 hPa Calm     87% 0.0 mm 0 W/m2
02:23 14.1 °C 12 °C 1023.7 hPa Calm     87% 0.0 mm 0 W/m2
02:28 14.1 °C 12 °C 1023.7 hPa Calm     87% 0.0 mm 0 W/m2
02:33 14.1 °C 12 °C 1023.7 hPa Calm     87% 0.0 mm 0 W/m2
02:38 14 °C 11.9 °C 1023.7 hPa Calm     87% 0.0 mm 0 W/m2
02:43 13.9 °C 11.8 °C 1023.7 hPa Calm     87% 0.0 mm 0 W/m2
02:48 13.8 °C 11.7 °C 1023.7 hPa Calm     87% 0.0 mm 0 W/m2
02:53 13.8 °C 11.8 °C 1023.4 hPa Calm     88% 0.0 mm 0 W/m2
02:58 13.7 °C 11.7 °C 1023.4 hPa Calm     88% 0.0 mm 0 W/m2
03:03 13.7 °C 11.7 °C 1023.4 hPa Calm     88% 0.0 mm 0 W/m2
03:08 13.6 °C 11.6 °C 1023.4 hPa Calm     88% 0.0 mm 0 W/m2
03:13 13.5 °C 11.7 °C 1023.4 hPa Calm     89% 0.0 mm 0 W/m2
03:19 13.4 °C 11.6 °C 1023.4 hPa Calm     89% 0.0 mm 0 W/m2
03:24 13.4 °C 11.6 °C 1023.4 hPa Calm     89% 0.0 mm 0 W/m2
03:29 13.4 °C 11.6 °C 1023.4 hPa Calm     89% 0.0 mm 0 W/m2
03:34 13.5 °C 11.9 °C 1023.4 hPa Calm     90% 0.0 mm 0 W/m2
03:39 13.4 °C 11.6 °C 1023.4 hPa Calm     89% 0.0 mm 0 W/m2
03:44 13.4 °C 11.6 °C 1023.4 hPa Calm     89% 0.0 mm 0 W/m2
03:49 13.4 °C 11.8 °C 1023.4 hPa Calm     90% 0.0 mm 0 W/m2
03:54 13.4 °C 11.8 °C 1023.0 hPa Calm     90% 0.0 mm 0 W/m2
03:59 13.4 °C 11.8 °C 1023.0 hPa Calm     90% 0.0 mm 0 W/m2
04:04 13.4 °C 11.8 °C 1023.0 hPa Calm     90% 0.0 mm 0 W/m2
Juneau County Weather
Compliments of Weather Underground - 2 mb